When you browse on this site, cookies collect data to enhance your experience and personalize the content and advertising you see.
Visit our Privacy Policy to learn more. By continuing to use the site, you agree to this use of cookies and data.
  • In Deutschland
  • Länderverzeichnis
  • Für 7 Tage
  • Wassertemperatur
  • Satellitenkarten
  • Wetterkarte
  • Widgets
  • user-avatar
    Anmelden

    Stündliche Wetter Ryaska

    Heute, 20 November, Dienstag

    Zeit Temperatur Niederschläge Wind Luftdruck Luftfeuchtigkeit
    00:00 -3°C° 0 mm 4 m/S 763 mmHg 79%
    01:00 -3°C° 0.1 mm 4 m/S 762 mmHg 81%
    02:00 -2°C° 0.1 mm 4 m/S 762 mmHg 82%
    03:00 -1°C° 0 mm 3 m/S 762 mmHg 85%
    04:00 -1°C° 0.5 mm 3 m/S 762 mmHg 87%
    05:00 -2°C° 0.5 mm 4 m/S 761 mmHg 89%
    06:00 -2°C° 0.5 mm 4 m/S 761 mmHg 91%
    07:00 -2°C° 0.3 mm 4 m/S 761 mmHg 92%
    08:00 -2°C° 0.3 mm 4 m/S 761 mmHg 92%
    09:00 -2°C° 0 mm 5 m/S 761 mmHg 91%
    10:00 -1°C° 0.3 mm 5 m/S 760 mmHg 92%
    11:00 -1°C° 0.3 mm 5 m/S 760 mmHg 93%
    12:00 -1°C° 0.3 mm 5 m/S 760 mmHg 93%
    13:00 -1°C° 0.5 mm 5 m/S 759 mmHg 93%
    14:00 -1°C° 0.5 mm 5 m/S 759 mmHg 93%
    15:00 -1°C° 0.5 mm 4 m/S 759 mmHg 93%
    16:00 -1°C° 0.5 mm 4 m/S 759 mmHg 94%
    17:00 -1°C° 0.5 mm 4 m/S 758 mmHg 94%
    18:00 -1°C° 0.5 mm 5 m/S 758 mmHg 94%
    19:00 -1°C° 0.5 mm 5 m/S 759 mmHg 94%
    20:00 -1°C° 0.5 mm 5 m/S 759 mmHg 93%
    21:00 -1°C° 0.5 mm 5 m/S 759 mmHg 93%
    22:00 -2°C° 0.1 mm 4 m/S 759 mmHg 92%
    23:00 -2°C° 0.1 mm 4 m/S 760 mmHg 91%

    Morgen, 21 November, Mittwoch

    Zeit Temperatur Niederschläge Wind Luftdruck Luftfeuchtigkeit
    00:00 -2°C° 0.1 mm 4 m/S 760 mmHg 91%
    01:00 -3°C° 0 mm 4 m/S 760 mmHg 90%
    02:00 -2°C° 0 mm 3 m/S 760 mmHg 89%
    03:00 -4°C° 0 mm 3 m/S 761 mmHg 88%
    04:00 -4°C° 0 mm 3 m/S 761 mmHg 87%
    05:00 -5°C° 0 mm 3 m/S 761 mmHg 85%
    06:00 -6°C° 0 mm 3 m/S 761 mmHg 84%
    07:00 -5°C° 0 mm 3 m/S 761 mmHg 83%
    08:00 -4°C° 0 mm 2 m/S 762 mmHg 83%
    09:00 -4°C° 0 mm 2 m/S 762 mmHg 82%
    10:00 -3°C° 0 mm 2 m/S 762 mmHg 82%
    11:00 -2°C° 0 mm 2 m/S 762 mmHg 82%
    12:00 -1°C° 0 mm 2 m/S 762 mmHg 82%
    13:00 -1°C° 0 mm 2 m/S 761 mmHg 84%
    14:00 -1°C° 0 mm 2 m/S 761 mmHg 86%
    15:00 -1°C° 0 mm 2 m/S 761 mmHg 88%
    16:00 -2°C° 0 mm 2 m/S 761 mmHg 89%
    17:00 -3°C° 0 mm 2 m/S 761 mmHg 90%
    18:00 -4°C° 0 mm 2 m/S 761 mmHg 90%
    19:00 -5°C° 0 mm 2 m/S 761 mmHg 90%
    20:00 -5°C° 0 mm 2 m/S 761 mmHg 90%
    21:00 -5°C° 0 mm 2 m/S 761 mmHg 90%
    22:00 -5°C° 0 mm 2 m/S 760 mmHg 90%
    23:00 -5°C° 0 mm 2 m/S 760 mmHg 90%

    übermorgen, 22 November, Donnerstag

    Zeit Temperatur Niederschläge Wind Luftdruck Luftfeuchtigkeit
    00:00 -6°C° 0 mm 2 m/S 760 mmHg 90%
    01:00 -6°C° 0 mm 2 m/S 760 mmHg 89%
    02:00 -6°C° 0 mm 2 m/S 760 mmHg 89%
    03:00 -6°C° 0 mm 2 m/S 760 mmHg 89%
    04:00 -6°C° 0 mm 2 m/S 760 mmHg 89%
    05:00 -6°C° 0 mm 2 m/S 760 mmHg 89%
    06:00 -7°C° 0 mm 2 m/S 760 mmHg 89%
    07:00 -6°C° 0 mm 2 m/S 760 mmHg 89%
    08:00 -6°C° 0 mm 2 m/S 760 mmHg 89%
    09:00 -5°C° 0 mm 2 m/S 760 mmHg 88%
    10:00 -4°C° 0 mm 2 m/S 760 mmHg 87%
    11:00 -3°C° 0 mm 2 m/S 760 mmHg 86%
    12:00 -2°C° 0 mm 2 m/S 760 mmHg 85%
    13:00 -2°C° 0 mm 2 m/S 760 mmHg 86%
    14:00 -2°C° 0 mm 2 m/S 760 mmHg 87%
    15:00 -2°C° 0 mm 2 m/S 759 mmHg 88%
    16:00 -4°C° 0 mm 2 m/S 760 mmHg 90%
    17:00 -5°C° 0 mm 2 m/S 760 mmHg 91%
    18:00 -6°C° 0 mm 2 m/S 760 mmHg 92%
    19:00 -6°C° 0 mm 2 m/S 760 mmHg 91%
    20:00 -6°C° 0 mm 2 m/S 760 mmHg 90%
    21:00 -6°C° 0 mm 2 m/S 760 mmHg 89%
    22:00 -7°C° 0 mm 2 m/S 760 mmHg 89%
    23:00 -7°C° 0 mm 2 m/S 760 mmHg 88%

    23 November, Freitag

    Zeit Temperatur Niederschläge Wind Luftdruck Luftfeuchtigkeit
    00:00 -7°C° 0 mm 2 m/S 760 mmHg 88%
    01:00 -8°C° 0 mm 3 m/S 760 mmHg 88%
    02:00 -8°C° 0 mm 3 m/S 759 mmHg 88%
    03:00 -8°C° 0 mm 3 m/S 759 mmHg 87%
    04:00 -8°C° 0 mm 3 m/S 759 mmHg 87%
    05:00 -9°C° 0 mm 4 m/S 759 mmHg 87%
    06:00 -9°C° 0 mm 4 m/S 759 mmHg 87%
    07:00 -9°C° 0 mm 4 m/S 759 mmHg 87%
    08:00 -8°C° 0 mm 4 m/S 760 mmHg 87%
    09:00 -8°C° 0 mm 4 m/S 760 mmHg 86%
    10:00 -7°C° 0 mm 4 m/S 761 mmHg 86%
    11:00 -5°C° 0 mm 4 m/S 761 mmHg 86%
    12:00 -4°C° 0 mm 4 m/S 761 mmHg 86%
    13:00 -4°C° 0 mm 4 m/S 762 mmHg 86%
    14:00 -3°C° 0 mm 4 m/S 762 mmHg 86%
    15:00 -3°C° 0 mm 4 m/S 763 mmHg 87%
    16:00 -4°C° 0 mm 3 m/S 763 mmHg 87%
    17:00 -5°C° 0 mm 3 m/S 764 mmHg 88%
    18:00 -6°C° 0 mm 3 m/S 765 mmHg 88%
    19:00 -5°C° 0 mm 2 m/S 766 mmHg 86%
    20:00 -6°C° 0 mm 2 m/S 767 mmHg 84%
    21:00 -6°C° 0 mm 2 m/S 767 mmHg 82%
    22:00 -6°C° 0 mm 2 m/S 768 mmHg 80%
    23:00 -6°C° 0 mm 1 m/S 768 mmHg 77%

    24 November, Samstag

    Zeit Temperatur Niederschläge Wind Luftdruck Luftfeuchtigkeit
    00:00 -6°C° 0 mm 1 m/S 769 mmHg 75%
    01:00 -6°C° 0 mm 1 m/S 769 mmHg 74%
    02:00 -6°C° 0 mm 1 m/S 769 mmHg 73%
    03:00 -7°C° 0 mm 1 m/S 769 mmHg 72%
    04:00 -7°C° 0 mm 1 m/S 769 mmHg 72%
    05:00 -7°C° 0 mm 1 m/S 770 mmHg 72%
    06:00 -7°C° 0 mm 1 m/S 770 mmHg 72%
    07:00 -6°C° 0 mm 1 m/S 770 mmHg 73%
    08:00 -6°C° 0 mm 1 m/S 770 mmHg 73%
    09:00 -6°C° 0 mm 2 m/S 770 mmHg 74%
    10:00 -5°C° 0 mm 2 m/S 770 mmHg 71%
    11:00 -4°C° 0 mm 2 m/S 770 mmHg 69%
    12:00 -3°C° 0 mm 2 m/S 770 mmHg 67%
    13:00 -3°C° 0 mm 2 m/S 769 mmHg 69%
    14:00 -3°C° 0 mm 2 m/S 769 mmHg 71%
    15:00 -3°C° 0 mm 2 m/S 769 mmHg 73%
    16:00 -4°C° 0 mm 2 m/S 768 mmHg 73%
    17:00 -6°C° 0 mm 3 m/S 768 mmHg 73%
    18:00 -7°C° 0 mm 3 m/S 768 mmHg 73%
    19:00 -7°C° 0 mm 3 m/S 768 mmHg 73%
    20:00 -7°C° 0 mm 3 m/S 768 mmHg 73%
    21:00 -7°C° 0 mm 3 m/S 767 mmHg 73%
    22:00 -7°C° 0 mm 3 m/S 767 mmHg 75%
    23:00 -7°C° 0 mm 3 m/S 767 mmHg 77%

    25 November, Sonntag

    Zeit Temperatur Niederschläge Wind Luftdruck Luftfeuchtigkeit
    00:00 -7°C° 0 mm 3 m/S 766 mmHg 78%
    01:00 -7°C° 0 mm 3 m/S 766 mmHg 79%
    02:00 -7°C° 0 mm 3 m/S 766 mmHg 79%
    03:00 -6°C° 0 mm 2 m/S 765 mmHg 79%
    04:00 -6°C° 0 mm 2 m/S 765 mmHg 79%
    05:00 -6°C° 0 mm 2 m/S 764 mmHg 80%
    06:00 -7°C° 0 mm 2 m/S 764 mmHg 80%
    07:00 -6°C° 0 mm 2 m/S 764 mmHg 80%
    08:00 -6°C° 0 mm 2 m/S 763 mmHg 81%
    09:00 -5°C° 0 mm 2 m/S 763 mmHg 82%
    10:00 -4°C° 0 mm 2 m/S 763 mmHg 81%
    11:00 0°C° 0 mm 1 m/S 762 mmHg 79%
    12:00 +1°C° 0 mm 1 m/S 762 mmHg 78%
    13:00 +1°C° 0 mm 1 m/S 762 mmHg 79%
    14:00 +1°C° 0 mm 1 m/S 761 mmHg 80%
    15:00 0°C° 0 mm 0 m/S 761 mmHg 81%
    16:00 -1°C° 0 mm 0 m/S 761 mmHg 82%
    17:00 -1°C° 0 mm 1 m/S 760 mmHg 82%
    18:00 -2°C° 0 mm 1 m/S 760 mmHg 82%
    19:00 -2°C° 0 mm 1 m/S 760 mmHg 81%
    20:00 -2°C° 0 mm 1 m/S 760 mmHg 80%
    21:00 -2°C° 0 mm 1 m/S 760 mmHg 80%
    22:00 -2°C° 0 mm 1 m/S 759 mmHg 79%
    23:00 -3°C° 0 mm 0 m/S 759 mmHg 79%
    Mehr zeigen